Regional Weather Roundup
Issued by NWS Nashville, TN

Home | Current Version | Previous Version | Text Only | Print | Product List | Glossary On
Versions: 1 2 3 4 5 6 7 8 9 10 11 12 13 14 15 16 17 18 19 20 21 22 23 24 25 26 27 28 29 30 31 32 33 34 35 36 37 38 39 40 41 42 43 44 45 46 47 48 49 50
000
ASUS44 KOHX 030410
RWROHX
MIDDLE TENNESSEE HOURLY WEATHER ROUNDUP
NATIONAL WEATHER SERVICE NASHVILLE TN
1100 PM CDT SUN AUG 02 2015

NOTE: "FAIR" INDICATES FEW OR NO CLOUDS BELOW 12,000 FEET WITH
NO SIGNIFICANT WEATHER AND/OR OBSTRUCTIONS TO VISIBILITY.

* THESE REPORTS ARE NOT UNDER NWS QUALITY CONTROL AND MAY NOT
  REPORT WEATHER SUCH AS PRECIPITATION AND FOG.


TNZ005>011-023>034-057-059-062>066-078-080-030500
...NORTHERN MIDDLE TENNESSEE...

CITY           SKY/WX    TMP DP  RH WIND       PRES   REMARKS
CLARKSVILLE    CLEAR     68  65  90 CALM      29.91S
CROSSVILLE     CLEAR     66  61  84 CALM      30.00S
DICKSON        CLEAR     66  64  94 CALM      29.94R
NASHVILLE      CLEAR     73  54  51 CALM      29.93S
ROCKWOOD       CLOUDY    66  59  78 NW5       29.98S
SMYRNA         CLEAR     68  62  80 CALM      29.94R
$$
TNZ056-058-060-061-075>077-079-093>097-030500
...SOUTHERN MIDDLE TENNESSEE...

CITY           SKY/WX    TMP DP  RH WIND       PRES   REMARKS
COLUMBIA       CLEAR     68  68 100 CALM      29.92S
LEWISBURG      CLEAR     66  61  84 CALM      29.94R
SHELBYVILLE    CLEAR     68  64  88 CALM      29.95R
TULLAHOMA      CLEAR     66  61  82 CALM      29.96R
WINCHESTER     CLEAR     66  63  88 CALM      29.95R
$$


...KEY TO REMARKS...
VSB - VISIBILITY IN MILES
WCI - WIND CHILL INDEX
HX  - HEAT INDEX




USA.gov is the U.S. government's official web portal to all federal, state and local government web resources and services.